Waarnemingen

Advertentie
Mijn weer
Luqa, Malta (16597): temperatuur & dauwpunt: 16.01.2018 11:00:00 - 22.01.2018 11:00:00 (CET)Luqa, Malta (16597): windsnelheid: 16.01.2018 11:00:00 - 22.01.2018 11:00:00 (CET)Luqa, Malta (16597): windrichting: 16.01.2018 11:00:00 - 22.01.2018 11:00:00 (CET)Luqa, Malta (16597): luchtdruk: 16.01.2018 11:00:00 - 22.01.2018 11:00:00 (CET)Luqa, Malta (16597): zicht: 16.01.2018 11:00:00 - 22.01.2018 11:00:00 (CET)
Datum & Tijd tt [°C] td [°C] ff [km/u] ff [kn] dd ppp [hPa] vv [km]
22.01.2018 11:00:00 17,0 10,0 24 13 NNW - 10
22.01.2018 10:00:00 15,8 11,6 29 16 NNW 1016,2 15
22.01.2018 09:00:00 15,0 11,0 26 14 NNW - 10
22.01.2018 08:00:00 14,0 11,0 28 15 NNW - 10
22.01.2018 07:00:00 13,7 10,8 29 16 NNW 1014,3 10
22.01.2018 06:00:00 13,0 11,0 26 14 NW - 9
22.01.2018 05:00:00 14,0 11,0 35 19 WNW - 9
22.01.2018 04:00:00 13,7 10,9 34 18 NW 1012,8 9
22.01.2018 03:00:00 14,0 11,0 22 12 NW - 9
22.01.2018 02:00:00 14,0 11,0 28 15 NW - 9
22.01.2018 01:00:00 14,4 11,7 29 16 NNW 1011,6 9
22.01.2018 00:00:00 14,0 12,0 31 17 NW - 9
21.01.2018 23:00:00 15,0 12,0 28 15 NW - 7
21.01.2018 22:00:00 14,6 12,1 29 16 WNW 1010,9 9
21.01.2018 21:00:00 15,0 12,0 35 19 NW - 9
21.01.2018 20:00:00 15,0 12,0 37 20 NW - 7
21.01.2018 19:00:00 15,4 12,4 42 23 NW 1010,1 8
21.01.2018 18:00:00 15,0 12,0 41 22 NW - 9
21.01.2018 17:00:00 15,0 12,0 48 26 WNW - 6
21.01.2018 16:00:00 15,4 10,3 35 19 W 1009,6 10
21.01.2018 15:00:00 15,0 10,0 37 20 W - 10
21.01.2018 14:00:00 15,0 10,0 37 20 WNW - 10
21.01.2018 13:00:00 15,2 10,1 46 25 WNW 1011,5 10
21.01.2018 12:00:00 15,0 10,0 44 24 WNW - 10
21.01.2018 11:00:00 15,0 12,0 29 16 WNW - 10
21.01.2018 10:00:00 15,0 10,7 31 17 NW 1013,6 10
21.01.2018 09:00:00 14,0 10,0 26 14 NW - 10
21.01.2018 08:00:00 13,0 9,0 15 8 NW - 10
21.01.2018 07:00:00 11,6 8,4 18 10 NW 1013,6 10
21.01.2018 06:00:00 11,0 8,0 24 13 NNW - 10
21.01.2018 05:00:00 11,0 7,0 24 13 NNW - 10
21.01.2018 04:00:00 10,5 7,6 16 9 NW 1013,8 10
21.01.2018 03:00:00 11,0 8,0 21 11 NNW - 10
21.01.2018 02:00:00 11,0 8,0 18 10 NNW - 10
21.01.2018 01:00:00 11,0 8,8 13 7 N 1014,0 10
21.01.2018 00:00:00 11,0 9,0 13 7 NNO - 10
20.01.2018 23:00:00 11,0 9,0 16 9 N - 10
20.01.2018 22:00:00 10,7 8,8 16 9 NNW 1014,5 10
20.01.2018 21:00:00 11,0 9,0 11 6 NNW - 10
20.01.2018 20:00:00 12,0 9,0 11 6 N - 10
20.01.2018 19:00:00 12,9 9,0 13 7 NNO 1014,2 10
20.01.2018 18:00:00 13,0 10,0 18 10 N - 10
20.01.2018 17:00:00 13,0 10,0 16 9 N - 10
20.01.2018 16:00:00 14,1 9,4 22 12 N 1012,9 10
20.01.2018 15:00:00 14,0 7,0 13 7 NO - 10
20.01.2018 14:00:00 14,0 10,0 21 11 NNO - 10
20.01.2018 13:00:00 15,1 10,8 18 10 NO 1013,4 10
20.01.2018 12:00:00 15,0 11,0 16 9 NNO - 10
20.01.2018 11:00:00 16,0 10,0 11 6 O - 10
20.01.2018 10:00:00 15,2 11,4 16 9 ONO 1014,7 10
20.01.2018 09:00:00 14,0 12,0 18 10 NNO - 10
20.01.2018 08:00:00 13,0 12,0 8 4 NNO - 10
20.01.2018 07:00:00 10,9 9,6 9 5 N 1014,5 10
20.01.2018 06:00:00 11,0 9,0 5 3 NW - 10
20.01.2018 05:00:00 11,0 9,0 5 3 WNW - 10
20.01.2018 04:00:00 11,8 9,7 4 2 N 1014,3 10
20.01.2018 03:00:00 12,0 9,0 8 4 N - 10
20.01.2018 02:00:00 14,0 10,0 4 2 ZZW - 10
20.01.2018 01:00:00 14,1 9,8 9 5 ZZW 1015,7 10
20.01.2018 00:00:00 14,0 10,0 9 5 ZZW - 10
19.01.2018 23:00:00 14,0 9,0 9 5 ZZW - 10
19.01.2018 22:00:00 12,4 8,1 11 6 ZZW 1017,4 10
19.01.2018 21:00:00 13,0 8,0 5 3 ZW - 10
19.01.2018 20:00:00 13,0 8,0 5 3 WZW - 10
19.01.2018 19:00:00 13,6 7,8 5 3 WZW 1017,1 10
19.01.2018 18:00:00 14,0 8,0 9 5 ZW - 10
19.01.2018 17:00:00 14,0 8,0 9 5 WZW - 10
19.01.2018 16:00:00 14,7 7,8 15 8 WZW 1017,2 10
19.01.2018 15:00:00 15,0 8,0 11 6 ZW - 10
19.01.2018 14:00:00 15,0 8,0 15 8 WZW - 10
19.01.2018 13:00:00 15,7 7,7 16 9 ZW 1018,6 10
19.01.2018 12:00:00 15,0 7,0 9 5 ZW - 10
19.01.2018 11:00:00 15,0 7,0 13 7 ZZW - 10
19.01.2018 10:00:00 13,9 7,7 11 6 ZW 1020,8 10
19.01.2018 09:00:00 13,0 7,0 8 4 W - 10
19.01.2018 08:00:00 12,0 7,0 8 4 WZW - 10
19.01.2018 07:00:00 12,2 7,0 11 6 ZW 1020,8 10
19.01.2018 06:00:00 12,0 7,0 9 5 WZW - 10
19.01.2018 05:00:00 12,0 7,0 9 5 W - 10
19.01.2018 04:00:00 11,9 6,4 9 5 W 1021,3 10
19.01.2018 03:00:00 12,0 7,0 9 5 W - 10
19.01.2018 02:00:00 11,0 6,0 9 5 W - 10
19.01.2018 01:00:00 10,4 6,2 9 5 W 1022,8 10
19.01.2018 00:00:00 10,0 6,0 8 4 W - 10
18.01.2018 23:00:00 10,0 6,0 11 6 W - 10
18.01.2018 22:00:00 10,1 5,3 9 5 W 1023,2 10
18.01.2018 21:00:00 10,0 5,0 0 0 N - 10
18.01.2018 20:00:00 10,0 5,0 8 4 W - 10
18.01.2018 19:00:00 11,2 3,7 8 4 W 1024,3 10
18.01.2018 18:00:00 11,0 4,0 8 4 WNW - 10
18.01.2018 17:00:00 13,0 4,0 8 4 W - 10
18.01.2018 16:00:00 14,6 4,4 15 8 NW 1023,4 10
18.01.2018 15:00:00 15,0 4,0 16 9 NNW - 10
18.01.2018 14:00:00 16,0 1,0 13 7 NNW - 10
18.01.2018 13:00:00 15,3 4,1 15 8 NNW 1023,7 10
18.01.2018 12:00:00 15,0 4,0 16 9 N - 10
18.01.2018 11:00:00 15,0 4,0 15 8 N - 10
18.01.2018 10:00:00 14,5 4,7 26 14 N 1023,3 10
18.01.2018 09:00:00 14,0 4,0 26 14 N - 10
18.01.2018 08:00:00 13,0 4,0 24 13 N - 10
18.01.2018 07:00:00 11,8 4,7 22 12 N 1021,0 10
18.01.2018 06:00:00 12,0 4,0 26 14 N - 10
18.01.2018 05:00:00 12,0 6,0 18 10 N - 10
18.01.2018 04:00:00 12,6 2,9 24 13 NNW 1018,7 10
18.01.2018 03:00:00 13,0 3,0 31 17 NNW - 10
18.01.2018 02:00:00 13,0 6,0 31 17 NNW - 10
18.01.2018 01:00:00 13,8 6,3 34 18 NNW 1017,5 10
18.01.2018 00:00:00 14,0 6,0 44 24 NNW - 10
17.01.2018 23:00:00 15,0 7,0 46 25 NW - 10
17.01.2018 22:00:00 15,0 8,2 41 22 WNW 1016,3 10
17.01.2018 21:00:00 15,0 9,0 44 24 WNW - 10
17.01.2018 20:00:00 15,0 11,0 39 21 WNW - 10
17.01.2018 19:00:00 15,2 10,4 39 21 WNW 1015,4 10
17.01.2018 18:00:00 15,0 9,0 34 18 WNW - 10
17.01.2018 17:00:00 15,0 8,0 37 20 WNW - 10
17.01.2018 16:00:00 16,1 7,7 34 18 NW 1015,3 10
17.01.2018 15:00:00 17,0 8,0 39 21 WNW - 10
17.01.2018 14:00:00 17,0 7,0 29 16 WNW - 10
17.01.2018 13:00:00 16,9 9,6 29 16 WNW 1016,1 10
17.01.2018 12:00:00 17,0 11,0 26 14 W - 10
17.01.2018 11:00:00 16,0 11,0 28 15 W - 10
17.01.2018 10:00:00 16,1 8,1 22 12 W 1018,3 10
17.01.2018 09:00:00 16,0 8,0 26 14 WNW - 10
17.01.2018 08:00:00 14,0 9,0 21 11 W - 10
17.01.2018 07:00:00 13,4 9,3 22 12 W 1018,6 10
17.01.2018 06:00:00 14,0 9,0 22 12 W - 10
17.01.2018 05:00:00 14,0 10,0 24 13 W - 10
17.01.2018 04:00:00 13,5 10,2 24 13 W 1020,1 10
17.01.2018 03:00:00 14,0 10,0 22 12 WNW - 10
17.01.2018 02:00:00 14,0 10,0 24 13 WNW - 10
17.01.2018 01:00:00 14,1 9,5 34 18 WNW 1021,3 10
17.01.2018 00:00:00 14,0 10,0 26 14 WNW - 10
16.01.2018 23:00:00 14,0 10,0 24 13 WNW - 10
16.01.2018 22:00:00 13,8 10,2 21 11 WNW 1023,4 10
16.01.2018 21:00:00 13,0 10,0 22 12 WNW - 10
16.01.2018 20:00:00 14,0 10,0 18 10 WNW - 10
16.01.2018 19:00:00 13,8 10,1 21 11 WNW 1023,7 10
16.01.2018 18:00:00 13,0 10,0 16 9 WNW - 10
16.01.2018 17:00:00 14,0 10,0 21 11 WNW - 10
16.01.2018 16:00:00 15,3 9,8 22 12 WNW 1023,5 10
16.01.2018 15:00:00 16,0 9,0 28 15 WNW - 10
16.01.2018 14:00:00 16,0 9,0 24 13 WNW - 10
16.01.2018 13:00:00 16,3 7,8 24 13 WNW 1024,7 10
16.01.2018 12:00:00 16,0 8,0 24 13 NW - 10
16.01.2018 11:00:00 16,0 9,0 21 11 WNW - 10

tt = temperatuur
td = dauwpunt
ff = windsnelheid
dd = windrichting
ppp = luchtdruk
vv = zicht

Weerstations in de omgeving